{"data":{"norad_id":49445,"epoch":"2026-05-24T18:37:13.414080Z","epoch_age_seconds":90344,"freshness":"FRESH","line1":"1 49445U 21104AP  26144.77584970  .00000745  00000+0  64880-4 0  9993","line2":"2 49445  53.2137 237.9496 0000931  85.1497 274.9601 15.08840407250256","mean_motion":15.08840407,"eccentricity":9.31e-5,"inclination_deg":53.2137,"raan_deg":237.9496,"arg_perigee_deg":85.1497,"mean_anomaly_deg":274.9601,"bstar":6.488e-5,"rev_number":25025,"period_min":95.437528934099,"perigee_km":539.09809037981,"apogee_km":540.3861994766,"semimajor_km":6917.8791449282,"source":"CELESTRAK","updated_at":"2026-05-25T13:38:16.802602Z"}}